{"data":{"norad_id":60554,"intl_designator":"2024-149CQ","name":"UM5-RIBAT","alt_names":[],"object_type":"PAYLOAD","status":"ACTIVE","operator":null,"country":"MA","launch_date":"2024-08-16","launch_site_code":"AFWTR","launch_vehicle":null,"mission":null,"orbit_class":"UNKNOWN","rcs_meters":null,"size_class":null,"mass_kg":null,"dimensions":null,"purposes":[],"wikipedia_slug":null,"has_3d_model":false,"image_url":null,"decayed_at":null,"tle_current":{"epoch":"2026-05-25T03:21:26.192736Z","epoch_age_seconds":66066,"freshness":"FRESH","line1":"1 60554U 24149CQ  26145.13988649  .00002562  00000+0  20579-3 0  9996","line2":"2 60554  97.6649 223.2513 0003801  98.5055 261.6600 15.00920395 96735","mean_motion":15.00920395,"eccentricity":0.0003801,"inclination_deg":97.6649,"raan_deg":223.2513,"arg_perigee_deg":98.5055,"mean_anomaly_deg":261.66,"bstar":0.00020579,"rev_number":9673,"period_min":95.941130841919,"perigee_km":561.41810345197,"apogee_km":566.69555920255,"semimajor_km":6942.1938313273,"source":"CELESTRAK","updated_at":"2026-05-25T13:38:02.153291Z"}}}